Tucumcari, NM

1:16 AM MST on December 17, 2017 (GMT -0700)
Tucumcari Municipal

Weather History for KTCC - February, 2014

Change the Weather History Date:

Wednesday, February 5, 2014

  Actual Average Record
Temperature  
Mean Temperature 12 °F -  
Max Temperature 19 °F 50 °F 77 °F (1963)
Min Temperature 5 °F 25 °F -2 °F (1982)
Degree Days  
Heating Degree Days 53    
Moisture  
Dew Point 3 °F    
Average Humidity 72    
Maximum Humidity 80    
Minimum Humidity 58    
Precipitation  
Precipitation 0.00 in - - ()
Sea Level Pressure  
Sea Level Pressure 30.41 in    
Wind  
Wind Speed 11 mph (ENE)    
Max Wind Speed 14 mph    
Max Gust Speed -    
Visibility 5 miles    
Events Snow    
Averages and records for this station are not official NWS values.
T = Trace of Precipitation, MM = Missing Value Source: NWS Daily Summary

Daily Weather History Graph

Daily Weather History Graph

Search for Another Location

Airport or City:

Trip Planner

Search our weather history database for the weather conditions in past years. The results will help you decide how hot, cold, wet, or windy it might be!

Date:

Astronomy

Feb. 05, 2014 Rise Set
Actual Time 6:50 AM MST 5:27 PM MST
Civil Twilight 6:23 AM MST 5:53 PM MST
Nautical Twilight 5:53 AM MST 6:23 PM MST
Astronomical Twilight 5:23 AM MST 6:53 PM MST
Moon 10:22 AM MST (2/5) No Moon Set
Length of Visible Light 11h 29m
Length of Day
10h 36m
Waxing Crescent, 40% of the Moon is Illuminated
Feb 5
Waxing Crescent
Feb 6
First Quarter
Feb 14
Full
Feb 22
Last Quarter
Mar 1
New

Hourly Weather History & Observations

Time (MST) Temp. Windchill Dew Point Humidity Pressure Visibility Wind Dir Wind Speed Gust Speed Precip Events Conditions
12:53 AM 19.9 °F - 10.9 °F 68% 30.28 in 9.0 mi North - - N/A   Overcast
1:53 AM 18.0 °F - 8.1 °F 65% 30.31 in 10.0 mi North - - 0.00 in   Overcast
2:21 AM 17.1 °F - 7.0 °F 65% 30.25 in 10.0 mi North - - N/A   Overcast
2:53 AM 16.0 °F - 5.0 °F 62% 30.34 in 10.0 mi North - - N/A   Overcast
3:10 AM 15.1 °F - 3.9 °F 61% 30.27 in 10.0 mi North - - N/A   Overcast
3:53 AM 14.0 °F - 3.9 °F 64% 30.37 in 10.0 mi North - - N/A   Overcast
4:53 AM 12.9 °F - 1.9 °F 62% 30.41 in 10.0 mi North - - N/A   Overcast
5:53 AM 12.0 °F - -0.0 °F 59% 30.44 in 10.0 mi North - - N/A   Overcast
6:53 AM 10.9 °F - -0.0 °F 61% 30.46 in 10.0 mi North - - N/A   Overcast
7:53 AM 10.0 °F - -0.0 °F 64% 30.51 in 10.0 mi North - - N/A   Overcast
8:53 AM 10.0 °F - -2.0 °F 58% 30.54 in 10.0 mi North - - N/A   Overcast
9:53 AM 10.0 °F - -2.0 °F 58% 30.57 in 10.0 mi North - - N/A   Overcast
10:15 AM 10.0 °F - -0.0 °F 64% 30.43 in 2.5 mi North - - 0.00 in Snow Light Snow
10:29 AM 10.0 °F -3.7 °F 1.9 °F 70% 30.43 in 1.5 mi East 10.4 mph - 0.00 in Snow Light Snow
10:53 AM 10.0 °F -3.7 °F 3.0 °F 73% 30.56 in 2.0 mi East 10.4 mph - 0.00 in Snow Light Snow
11:23 AM 10.0 °F -5.2 °F 3.0 °F 73% 30.41 in 1.5 mi ENE 12.7 mph - 0.00 in Snow Light Snow
11:53 AM 10.9 °F -3.4 °F 3.0 °F 70% 30.53 in 1.5 mi East 11.5 mph - 0.00 in Snow Light Snow
12:23 PM 10.9 °F -1.8 °F 3.9 °F 73% 30.37 in 2.0 mi East 9.2 mph - 0.00 in Snow Light Snow
12:44 PM 10.9 °F -3.4 °F 3.0 °F 70% 30.36 in 4.0 mi East 11.5 mph - 0.00 in Snow Light Snow
12:53 PM 10.9 °F -2.6 °F 3.0 °F 70% 30.49 in 5.0 mi East 10.4 mph - 0.00 in Snow Light Snow
1:53 PM 12.0 °F -2.0 °F 3.9 °F 70% 30.48 in 3.0 mi ENE 11.5 mph - 0.00 in Snow Light Snow
2:53 PM 12.0 °F -0.4 °F 3.0 °F 67% 30.47 in 5.0 mi ENE 9.2 mph - 0.00 in Snow Light Snow
3:41 PM 12.0 °F -2.0 °F 3.9 °F 70% 30.32 in 2.5 mi ENE 11.5 mph - 0.00 in Snow Light Snow
3:53 PM 12.0 °F -2.7 °F 3.9 °F 70% 30.47 in 3.0 mi ENE 12.7 mph - 0.00 in Snow Light Snow
4:00 PM 12.0 °F -2.0 °F 3.9 °F 70% 30.32 in 4.0 mi ENE 11.5 mph - 0.00 in Snow Light Snow
4:10 PM 12.0 °F -2.0 °F 3.9 °F 70% 30.32 in 3.0 mi ENE 11.5 mph - 0.00 in Snow Light Snow
4:53 PM 10.9 °F -4.7 °F 3.0 °F 70% 30.49 in 3.0 mi ENE 13.8 mph - 0.00 in Snow Light Snow
5:19 PM 10.0 °F -5.2 °F 3.0 °F 73% 30.33 in 4.0 mi ENE 12.7 mph - 0.00 in Snow Light Snow
5:28 PM 10.0 °F -5.2 °F 3.0 °F 73% 30.33 in 2.5 mi East 12.7 mph - 0.00 in Snow Light Snow
5:34 PM 10.0 °F -5.2 °F 3.0 °F 73% 30.33 in 3.0 mi East 12.7 mph - 0.00 in Snow Light Snow
5:53 PM 10.0 °F -5.2 °F 3.0 °F 73% 30.50 in 9.0 mi East 12.7 mph - 0.00 in   Overcast
6:53 PM 9.0 °F -5.9 °F 1.9 °F 73% 30.51 in 5.0 mi ENE 11.5 mph - 0.00 in Snow Light Snow
7:18 PM 8.1 °F -7.0 °F 1.9 °F 76% 30.33 in 2.5 mi ENE 11.5 mph - 0.00 in Snow Light Snow
7:32 PM 8.1 °F -6.2 °F 1.9 °F 76% 30.34 in 2.0 mi East 10.4 mph - 0.00 in Snow Light Snow
7:45 PM 8.1 °F -6.2 °F 3.0 °F 80% 30.35 in 1.5 mi East 10.4 mph - 0.00 in Snow Light Snow
7:53 PM 8.1 °F -5.3 °F 3.0 °F 80% 30.53 in 1.8 mi East 9.2 mph - 0.00 in Snow Light Snow
8:00 PM 8.1 °F -5.3 °F 3.0 °F 80% 30.35 in 2.5 mi ENE 9.2 mph - 0.00 in Snow Light Snow
8:15 PM 8.1 °F -4.3 °F 3.0 °F 80% 30.35 in 1.5 mi East 8.1 mph - 0.00 in Snow Light Snow
8:53 PM 7.0 °F -7.5 °F 1.9 °F 80% 30.54 in 1.2 mi ENE 10.4 mph - 0.00 in Snow Light Snow
9:01 PM 7.0 °F -6.6 °F 1.9 °F 80% 30.36 in 1.0 mi ENE 9.2 mph - 0.00 in Snow Light Snow
9:26 PM 6.1 °F -9.5 °F 1.0 °F 80% 30.36 in 1.2 mi East 11.5 mph - 0.00 in Snow Light Snow
9:40 PM 7.0 °F -6.6 °F 1.9 °F 80% 30.37 in 2.0 mi East 9.2 mph - 0.00 in Snow Light Snow
9:53 PM 7.0 °F -6.6 °F 1.9 °F 80% 30.55 in 2.5 mi East 9.2 mph - 0.00 in Snow Light Snow
10:08 PM 6.1 °F -7.8 °F 1.0 °F 80% 30.36 in 3.0 mi East 9.2 mph - 0.00 in Snow Light Snow
10:32 PM 6.1 °F -6.8 °F 1.0 °F 80% 30.36 in 2.0 mi East 8.1 mph - 0.00 in Snow Light Snow
10:44 PM 6.1 °F -7.8 °F 1.0 °F 80% 30.35 in 3.0 mi East 9.2 mph - 0.00 in Snow Light Snow
10:53 PM 5.0 °F -10.0 °F -0.0 °F 80% 30.54 in 4.0 mi East 10.4 mph - 0.00 in Snow Light Snow
11:19 PM 5.0 °F -4.1 °F -0.0 °F 80% 30.37 in 8.0 mi East 4.6 mph - 0.00 in   Overcast
11:53 PM 5.0 °F -5.6 °F -0.0 °F 80% 30.53 in 10.0 mi East 5.8 mph - 0.00 in   Overcast